Indianapolis, IN

11:43 AM EDT on July 22, 2017 (GMT -0400)
Indianapolis Terry

Weather History for KTYQ - April, 2014

Change the Weather History Date:

Tuesday, April 22, 2014

  Actual Average (KEYE) Record (KEYE)
Temperature  
Mean Temperature 51 °F -  
Max Temperature 59 °F 62 °F 81 °F (2001)
Min Temperature 43 °F 42 °F 34 °F (2013)
Degree Days  
Heating Degree Days 14    
Growing Degree Days 1 (Base 50)    
Moisture  
Dew Point 40 °F    
Average Humidity 61    
Maximum Humidity 88    
Minimum Humidity 36    
Precipitation  
Precipitation 0.00 in - - ()
Sea Level Pressure  
Sea Level Pressure 29.90 in    
Wind  
Wind Speed 11 mph (NW)    
Max Wind Speed 21 mph    
Max Gust Speed 29 mph    
Visibility 9 miles    
Events      
Averages and records for this station are not official NWS values.
T = Trace of Precipitation, MM = Missing Value Source: NWS Daily Summary

Daily Weather History Graph

Daily Weather History Graph

Search for Another Location

Airport or City:

Trip Planner

Search our weather history database for the weather conditions in past years. The results will help you decide how hot, cold, wet, or windy it might be!

Date:

Astronomy

Apr. 22, 2014 Rise Set
Actual Time 6:56 AM EDT 8:30 PM EDT
Civil Twilight 6:28 AM EDT 8:59 PM EDT
Nautical Twilight 5:53 AM EDT 9:33 PM EDT
Astronomical Twilight 5:17 AM EDT 10:10 PM EDT
Moon 2:45 AM EDT 1:31 PM EDT
Length of Visible Light 14h 30m
Length of Day
13h 33m
Last Quarter, 46% of the Moon is Illuminated
Apr 22
Last Quarter
Apr 29
New
May 6
First Quarter
May 14
Full
May 21
Last Quarter

Hourly Weather History & Observations

Time (EDT) Temp. Windchill Dew Point Humidity Pressure Visibility Wind Dir Wind Speed Gust Speed Precip Events Conditions
12:15 AM 57.4 °F - 53.2 °F 86% 29.86 in 7.0 mi SW 6.9 mph - N/A   Mostly Cloudy
12:35 AM 58.1 °F - 53.8 °F 86% 29.86 in 10.0 mi WSW 8.1 mph - N/A   Overcast
12:55 AM 58.6 °F - 53.6 °F 83% 29.85 in 10.0 mi WSW 9.2 mph - N/A   Overcast
1:15 AM 59.0 °F - 53.6 °F 82% 29.84 in 10.0 mi WSW 9.2 mph - N/A   Overcast
1:35 AM 58.6 °F - 53.6 °F 83% 29.84 in 10.0 mi WSW 9.2 mph - N/A   Overcast
1:55 AM 59.0 °F - 53.8 °F 83% 29.84 in 7.0 mi WSW 9.2 mph - N/A   Overcast
2:15 AM 59.0 °F - 53.8 °F 83% 29.84 in 7.0 mi West 11.5 mph - N/A   Overcast
2:35 AM 59.0 °F - 54.1 °F 84% 29.83 in 3.0 mi West 11.5 mph 17.3 mph N/A   Drizzle
2:55 AM 58.5 °F - 54.5 °F 87% 29.83 in 3.0 mi WSW 6.9 mph - N/A   Light Drizzle
3:15 AM 58.5 °F - 54.7 °F 87% 29.82 in 5.0 mi WSW 10.4 mph - N/A   Overcast
3:35 AM 58.5 °F - 54.7 °F 87% 29.82 in 5.0 mi West 9.2 mph - N/A   Overcast
3:55 AM 58.5 °F - 54.7 °F 87% 29.81 in 5.0 mi West 9.2 mph - N/A   Overcast
4:15 AM 58.3 °F - 54.5 °F 87% 29.81 in 5.0 mi West 8.1 mph - N/A   Mostly Cloudy
4:35 AM 57.7 °F - 53.8 °F 87% 29.80 in 5.0 mi West 6.9 mph - N/A   Scattered Clouds
4:55 AM 57.4 °F - 53.6 °F 87% 29.80 in 4.0 mi West 6.9 mph - N/A   Clear
5:15 AM 57.2 °F - 53.6 °F 88% 29.80 in 4.0 mi West 8.1 mph - N/A   Scattered Clouds
5:35 AM 57.2 °F - 53.6 °F 88% 29.80 in 4.0 mi West 5.8 mph - N/A   Clear
5:55 AM 57.6 °F - 54.0 °F 88% 29.80 in 4.0 mi WNW 6.9 mph - N/A   Mostly Cloudy
6:15 AM 58.1 °F - 54.5 °F 88% 29.81 in 4.0 mi NW 11.5 mph - N/A   Overcast
6:35 AM 58.3 °F - 54.1 °F 86% 29.81 in 5.0 mi NW 8.1 mph - N/A   Mostly Cloudy
6:55 AM 57.7 °F - 53.8 °F 87% 29.82 in 4.0 mi WNW 6.9 mph - N/A   Mostly Cloudy
7:15 AM 53.8 °F - 48.4 °F 82% 29.84 in 7.0 mi NNW 15.0 mph 19.6 mph N/A   Overcast
7:35 AM 50.0 °F - 40.6 °F 70% 29.86 in 10.0 mi North 20.7 mph 26.5 mph N/A   Mostly Cloudy
7:55 AM 48.6 °F - 39.4 °F 71% 29.87 in 10.0 mi NNW 13.8 mph - N/A   Scattered Clouds
8:35 AM 47.3 °F - 36.1 °F 65% 29.89 in 10.0 mi NNW 17.3 mph 28.8 mph N/A   Clear
8:55 AM 48.0 °F - 36.9 °F 65% 29.90 in 10.0 mi NNW 16.1 mph 26.5 mph N/A   Clear
9:15 AM 47.7 °F - 35.6 °F 63% 29.91 in 10.0 mi NNW 12.7 mph 26.5 mph N/A   Clear
9:35 AM 48.4 °F - 35.4 °F 61% 29.91 in 10.0 mi NNW 19.6 mph 27.6 mph N/A   Clear
9:55 AM 48.6 °F - 34.3 °F 58% 29.91 in 10.0 mi NNW 17.3 mph 28.8 mph N/A   Clear
10:15 AM 50.0 °F - 34.5 °F 55% 29.91 in 10.0 mi NNW 20.7 mph 25.3 mph N/A   Clear
10:35 AM 50.9 °F - 35.4 °F 55% 29.92 in 10.0 mi NNW 13.8 mph - N/A   Clear
10:55 AM 52.0 °F - 36.0 °F 54% 29.93 in 10.0 mi NW 11.5 mph 20.7 mph N/A   Clear
11:15 AM 52.0 °F - 34.9 °F 52% 29.93 in 10.0 mi NW 12.7 mph - N/A   Clear
11:35 AM 53.4 °F - 35.4 °F 51% 29.93 in 10.0 mi NNW 16.1 mph - N/A   Clear
11:55 AM 53.6 °F - 35.1 °F 50% 29.93 in 10.0 mi NW 16.1 mph 24.2 mph N/A   Clear
12:15 PM 54.5 °F - 34.9 °F 48% 29.93 in 10.0 mi NNW 13.8 mph 19.6 mph N/A   Clear
12:35 PM 55.4 °F - 34.9 °F 46% 29.93 in 10.0 mi NNW 12.7 mph 24.2 mph N/A   Clear
12:55 PM 55.2 °F - 34.5 °F 46% 29.93 in 10.0 mi NW 15.0 mph 23.0 mph N/A   Clear
1:15 PM 55.6 °F - 34.3 °F 45% 29.93 in 10.0 mi NW 13.8 mph 26.5 mph N/A   Clear
1:35 PM 55.6 °F - 34.2 °F 44% 29.93 in 10.0 mi NNW 17.3 mph 21.9 mph N/A   Clear
1:55 PM 56.8 °F - 34.5 °F 43% 29.93 in 10.0 mi NW 16.1 mph 23.0 mph N/A   Clear
2:15 PM 56.8 °F - 34.7 °F 43% 29.93 in 10.0 mi NW 15.0 mph 23.0 mph N/A   Clear
2:35 PM 56.5 °F - 34.5 °F 44% 29.93 in 10.0 mi NW 15.0 mph 26.5 mph N/A   Clear
2:55 PM 57.2 °F - 34.5 °F 43% 29.93 in 10.0 mi NNW 13.8 mph 20.7 mph N/A   Clear
3:15 PM 56.8 °F - 33.3 °F 41% 29.93 in 10.0 mi NW 12.7 mph 20.7 mph N/A   Clear
3:35 PM 57.4 °F - 33.4 °F 40% 29.92 in 10.0 mi NNW 15.0 mph 21.9 mph N/A   Clear
3:55 PM 57.6 °F - 32.7 °F 39% 29.93 in 10.0 mi NW 13.8 mph - N/A   Clear
4:15 PM 57.7 °F - 31.8 °F 37% 29.93 in 10.0 mi NW 17.3 mph 25.3 mph N/A   Clear
4:35 PM 57.2 °F - 31.3 °F 37% 29.93 in 10.0 mi NW 11.5 mph 25.3 mph N/A   Clear
4:55 PM 57.4 °F - 31.8 °F 38% 29.93 in 10.0 mi NNW 18.4 mph 24.2 mph N/A   Clear
5:15 PM 57.0 °F - 30.4 °F 36% 29.94 in 10.0 mi NNW 17.3 mph 26.5 mph N/A   Clear
5:35 PM 57.6 °F - 31.3 °F 37% 29.94 in 10.0 mi NNW 18.4 mph 25.3 mph N/A   Clear
5:55 PM 56.3 °F - 30.2 °F 37% 29.94 in 10.0 mi North 12.7 mph 24.2 mph N/A   Clear
6:15 PM 56.3 °F - 29.8 °F 36% 29.94 in 10.0 mi NNW 15.0 mph 20.7 mph N/A   Clear
6:35 PM 56.3 °F - 30.6 °F 38% 29.94 in 10.0 mi North 13.8 mph 18.4 mph N/A   Clear
6:55 PM 55.6 °F - 30.2 °F 38% 29.95 in 10.0 mi North 13.8 mph - N/A   Clear
7:15 PM 54.7 °F - 29.5 °F 38% 29.95 in 10.0 mi North 12.7 mph 19.6 mph N/A   Clear
7:35 PM 53.6 °F - 29.8 °F 40% 29.95 in 10.0 mi North 10.4 mph - N/A   Clear
7:55 PM 52.7 °F - 30.0 °F 42% 29.95 in 10.0 mi North 10.4 mph - N/A   Clear
8:15 PM 51.3 °F - 30.4 °F 45% 29.95 in 10.0 mi NNE 6.9 mph - N/A   Clear
8:35 PM 49.5 °F - 31.1 °F 49% 29.96 in 10.0 mi North 6.9 mph - N/A   Clear
8:55 PM 47.5 °F - 31.1 °F 53% 29.96 in 10.0 mi NNE 5.8 mph - N/A   Clear
9:15 PM 46.0 °F 43.1 °F 31.1 °F 56% 29.97 in 10.0 mi NNE 5.8 mph - N/A   Clear
9:35 PM 44.8 °F 42.4 °F 31.6 °F 60% 29.97 in 10.0 mi NNE 4.6 mph - N/A   Clear
10:15 PM 44.4 °F 41.2 °F 30.7 °F 59% 29.99 in 10.0 mi North 5.8 mph - N/A   Clear
10:35 PM 43.7 °F 40.3 °F 31.5 °F 62% 30.00 in 10.0 mi North 5.8 mph - N/A   Clear
10:55 PM 43.9 °F 40.5 °F 31.8 °F 63% 30.00 in 10.0 mi North 5.8 mph - N/A   Clear
11:15 PM 44.1 °F 39.5 °F 32.0 °F 63% 30.00 in 10.0 mi North 8.1 mph - N/A   Clear
11:35 PM 44.2 °F 39.7 °F 32.0 °F 62% 30.02 in 10.0 mi North 8.1 mph - N/A   Clear
11:55 PM 43.3 °F 38.6 °F 32.0 °F 64% 30.02 in 10.0 mi North 8.1 mph - N/A   Clear